User: anonymous   Login
Location: Paddlesworth
(51.1000°N, 1.1333°E)
Time: 22:31:11
(UTC+00:00)
Language:

ERBS - Orbit

View from above orbital plane
View from above orbital plane
View from above satellite
View from above satellite

Ground track
Ground track

The orbit data is extracted from the following two-line orbital elements,

1 15354U 84108B   21204.30416899  .00005973  00000-0  10008-3 0  9994
2 15354  57.0049 130.0800 0014585  96.4292 263.8429 15.53285340 29777
Epoch (UTC): 23 July 2021 07:18:00
Eccentricity: 0.0014585
inclination: 57.0049°
perigee height: 397 km
apogee height: 417 km
right ascension of ascending node: 130.0800°
argument of perigee: 96.4292°
revolutions per day: 15.53285340
mean anomaly at epoch: 263.8429°
orbit number at epoch: 2977

The dashed part of the orbit path shows where the satellite is in the earth's shadow,  

DLR